Location: 81360 Arifat, France
(43.7204°N, 2.3408°E)
Time: 01:58:02
(UTC+02:00)

Envisat - Visible Passes

Search period start: 29 September 2021 00:00
Search period end: 09 October 2021 00:00
Orbit: 764 x 766 km, 98.2° (Epoch: 28 September)

Date Brightness Start Highest point End Pass type
(mag) Time Alt. Az. Time Alt. Az. Time Alt. Az.
29 Sep 3.6 06:50:32 10° NNE 06:55:35 63° ESE 07:00:36 10° S visible
30 Sep 5.1 06:14:09 10° NE 06:18:33 29° E 06:22:55 10° SSE visible
01 Oct 6.0 05:38:57 10° ENE 05:41:19 13° E 05:43:41 10° ESE visible
01 Oct 3.0 07:15:50 10° N 07:20:55 77° WNW 07:25:59 10° SSW visible
02 Oct 4.0 06:39:06 10° NNE 06:44:02 49° E 06:48:56 10° S visible
03 Oct 5.5 06:02:57 10° NE 06:06:57 23° E 06:10:55 10° SE visible
04 Oct 3.1 07:04:18 10° NNE 07:09:25 85° ESE 07:14:30 10° SSW visible
05 Oct 4.5 06:27:42 10° NNE 06:32:28 39° E 06:37:11 10° SSE visible
06 Oct 5.8 05:51:51 10° NE 05:55:19 18° E 05:58:46 10° SE visible
07 Oct 3.4 06:52:48 10° NNE 06:57:53 67° ESE 07:02:56 10° S visible
08 Oct 4.9 06:16:23 10° NNE 06:20:53 31° E 06:25:21 10° SSE visible
